Tracking 29777 objects as of 5-Oct-2024
HD Live streaming from Space Station
objects crossing your sky now

COSMOS 252 DEB

Track COSMOS 252 DEB now!
10-day predictions


NORAD ID: 19479
Int'l Code: 1968-097ET
Perigee: 530.5 km
Apogee: 1,351.3 km
Inclination: 62.8 °
Period: 103.7 minutes
Semi major axis: 7311 km
RCS: 0.0127 m2 (small)
Launch date: November 1, 1968
Source: Commonwealth of Independent States (former USSR) (CIS)
Launch site: TYURATAM MISSILE AND SPACE COMPLEX (TTMTR)

Note: This is SATELLITE DEBRIS
Your satellite tracking list
Your tracking list is empty




NASA's NSSDC Master Catalog

Two Line Element Set (TLE):
1 19479U 68097ET  24278.00410820  .00007964  00000-0  18512-2 0  9993
2 19479  62.8021  67.1172 0561250 356.8035   2.9474 13.88544554805831
Source of the keplerian elements: AFSPC